Back to catalog

STARLINK-30965

AliveCommunicationsVLEO
NORAD 58477·PAYLOAD·🇺🇸 United States

Launched Dec 3, 2023 from Cape Canaveral Space Force Station

Loading…

Next Passes (next 24 hours)

TLE

FreshSource: CelesTrak SupGP

Epoch: Sep 14, 2026, 20:30 UTC

1 58477C 23186E   26257.85465278  .00050175  00000+0  18175-2 0  2576
2 58477  43.0006  63.8928 0001429 267.8613 262.8659 15.27551316    16

Track STARLINK-30965 in real time with AllMySat

Download on the App Store